Regional Weather Roundup
Issued by NWS Kansas City/Pleasant Hill, MO

Home | Current Version | Previous Version | Text Only | Print | Product List | Glossary On
Versions: 1 2 3 4 5 6 7 8 9 10 11 12 13 14 15 16 17 18 19 20 21 22 23 24 25 26 27 28 29 30 31 32 33 34 35 36 37 38 39 40 41 42 43 44 45 46 47 48 49 50
000
ASUS43 KEAX 181611
RWREAX

WEATHER ROUNDUP FOR EASTERN KANSAS AND NORTHWEST MISSOURI
NATIONAL WEATHER SERVICE KANSAS CITY/PLEASANT HILL MO
1100 AM CDT SAT APR 18 2015

KSZ040-057-103>105-MOZ028-029-037-043-181700-
...KANSAS CITY METROPOLITAN AREA...

CITY           SKY/WX    TMP DP  RH WIND       PRES   REMARKS
K.C. INTL      RAIN      59  58  96 SW18G24   29.94R FOG
K.C. DOWNTOWN  RAIN      62  58  86 W9G22     29.94F FOG
LEES SUMMIT    RAIN      60  58  92 W10       29.94S FOG
OLATHE - IXD   LGT RAIN  61  59  93 W8        29.94F
OLATHE - OJC   LGT RAIN  61  59  93 W8        29.93F
LAWRENCE       LGT RAIN  61  57  87 W9        29.93R

$$

MOZ001>008-011>017-020>025-030>033-038>040-044>046-053-054-181700-
...NORTHERN AND CENTRAL MISSOURI...

CITY           SKY/WX    TMP DP  RH WIND       PRES   REMARKS
ST. JOSEPH     TSTM      61  59  93 S8        29.93R FOG
MOSBY          TSTM      63  59  88 W5        29.95R
WARRENSBURG    CLOUDY    63  55  77 SW8       29.96R
WHITEMAN AFB   TSTM      65  60  83 W13       29.96R
CLINTON        DRIZZLE   63  63 100 W3        29.97R
SEDALIA        CLOUDY    72  60  66 SW8       29.96R
WARSAW         NOT AVBL
MARSHALL       CLOUDY    75  63  64 S14       29.96R
CHILLICOTHE      N/A     69  61  75 SE8       29.94R
MOBERLY        PTSUNNY   73  59  60 SE8       29.98R
KIRKSVILLE     TSTM      63  55  75 S7G22     29.98R

$$

MOZ041-047>049-056>058-063>065-088>090-097-181700-
...EASTERN AND SOUTHERN MISSOURI...

CITY           SKY/WX    TMP DP  RH WIND       PRES   REMARKS
ST. LOUIS INTL PTSUNNY   73  60  63 E8        30.01R
SPIRIT OF STL  CLOUDY    72  60  66 SE8       30.00R
COLUMBIA       PTSUNNY   72  61  68 SE15      29.97S
JEFFERSON CITY MOSUNNY   72  61  68 SE14      29.97S
MEXICO         CLOUDY    73  66  78 SE7       29.98R
HANNIBAL       CLOUDY    75  55  50 SE9       30.00S
ROLLA          PTSUNNY   67  60  78 SE9       29.98S
LEBANON        CLOUDY    66  61  82 SE8       29.99R
OSAGE BEACH    CLOUDY    68  59  73 SE9       29.98R
SPRINGFIELD    LGT RAIN  62  60  93 S8        29.98R
BRANSON        CLOUDY    63  59  88 CALM      30.02R
JOPLIN         LGT RAIN  60  58  92 VRB5      29.99S
WEST PLAINS    CLOUDY    66  59  78 SE10      30.02S

$$

IAZ060-094-KSZ022-034>040-054-083-096-NEZ052-066-093-181700-
...KANSAS...SOUTHEAST NEBRASKA AND IOWA...

CITY           SKY/WX    TMP DP  RH WIND       PRES   REMARKS
TOPEKA         LGT RAIN  61  59  93 S9        29.94F
MANHATTAN      LGT RAIN  63  61  93 CALM      29.92S
EMPORIA        CLOUDY    61  57  87 SE7       29.93F
CHANUTE        LGT RAIN  62  60  93 S14       29.96R
WICHITA        LGT RAIN  63  59  87 SE7       29.93R
OMAHA          LGT RAIN  61  59  93 S5        29.94R FOG
LINCOLN        CLOUDY    61  59  93 E8        29.91F FOG
FALLS CITY     LGT RAIN  62  58  86 N5        29.91R FOG
LAMONI         CLOUDY    65  60  84 CALM      29.92F
DES MOINES     PTSUNNY   70  56  61 E12       29.95F

$$



USA.gov is the U.S. government's official web portal to all federal, state and local government web resources and services.